Vertical_Velocity
0 -0 -0 -0 -0 0 2 6 10 -2 -13 -5 -5 2 -5 -4 -6 -2 -1 -4 -0 -1 -3 -6 -6 -4 -5 1 2 -1 8 8 -13 -15 -9 -7 -10 -7
-1 -2 -2 -1 -3 -1 0 2 4 6 -7 14 -6 5 3 -0 -9 -1 -5 -3 -7 -10 -4 -3 -0 6 2 -4 -4 5 6 4 -4 -10 -2 -3 2 -5
0 -0 -1 -1 -3 -2 -1 -0 -1 3 4 -40 6 -4 -2 6 5 2 -4 -8 -7 -11 -6 -9 -6 -8 2 0 -2 -6 -4 -6 -3 0 2 1 1 6
-0 -1 -1 -2 -2 -0 -0 -2 -3 0 11 -0 -9 -5 -2 -1 1 7 4 3 -1 -12 -10 -0 1 4 -9 -2 -4 -5 -4 -3 -2 5 1 0 -2 2
-0 -1 -2 -0 -2 -4 -4 -6 1 2 3 5 -24 -4 -7 2 -8 4 2 -3 -2 -8 -5 -4 -6 -0 -0 -3 -2 -4 0 8 3 0 0 -2 1 -6
-0 -0 0 -0 -4 -4 3 3 4 -0 -2 -1 -2 -3 2 1 9 1 -14 -3 -11 -1 -4 2 -3 -9 -6 -3 -4 -2 -2 -8 -9 -8 -5 -2 2 -0
1 1 -0 -1 0 3 11 3 -0 -3 4 5 -8 -0 17 -10 -2 -9 -4 -4 -12 7 -3 -4 -5 2 -4 -9 -13 -4 -0 -6 -4 -1 0 -4 1 4
-2 -1 -3 -3 -3 -0 -7 -2 12 12 -7 11 28 -2 -6 -2 -7 -3 3 14 -17 -16 -3 -9 -1 -6 -7 -4 2 -2 -2 3 4 1 1 7 -0 -0
-1 -4 -3 -0 -3 -5 -6 -2 -10 6 22 4 -1 0 -3 -5 14 9 -0 3 -7 -12 9 -14 8 -7 -7 -4 -6 -3 -2 -1 -1 -0 -0 -3 -2 -1
-2 1 1 -4 -1 2 5 -0 18 -2 -5 -0 9 2 10 8 10 10 4 1 -7 -6 9 -4 -0 -15 3 -6 -4 1 3 2 1 1 -2 -7 -4 -6
1 1 -2 -2 -8 8 17 -5 -4 -8 -0 -1 -4 -4 -3 -0 4 6 -1 5 -16 -15 -2 12 -10 -10 2 -12 -8 -3 -1 -1 -3 -1 2 17 27 10
8 -1 -2 -2 3 2 10 5 -6 -11 0 1 -8 -8 0 -6 -0 7 4 3 4 -13 -1 16 1 17 -5 -8 -3 -9 -6 -3 2 -7 -5 -4 -4 7
-3 -4 -1 -5 4 -3 0 0 -1 19 -6 -4 -5 -5 -5 -4 -1 1 6 14 5 -3 -4 24 2 -0 16 -4 -5 -0 4 -6 -1 -4 -2 -1 4 2
1 -2 -2 1 -5 -2 -1 -1 -0 1 -3 -4 -3 -5 -3 -3 -2 2 3 2 7 11 -5 7 5 17 8 -4 -6 -3 1 0 -0 -4 1 0 3 -0
-3 4 -7 -4 -1 -1 -2 -1 -0 -4 -2 -2 -2 -2 4 0 -2 -4 1 3 1 -1 -1 3 12 1 9 -1 -4 -7 -2 -10 5 -1 10 5 1 2
-1 -4 2 2 3 3 -3 -4 -2 1 5 2 -1 -1 -1 -5 -3 4 -0 -4 -3 -12 5 6 4 7 -2 4 3 -6 5 6 -2 6 6 10 8 1
-2 -4 -5 -5 -6 -6 -5 -1 -1 -2 -1 -1 -2 -3 -3 -1 -3 1 1 -0 4 -2 -7 -4 1 7 0 -1 -5 5 -1 2 8 6 1 5 17 3
-5 -4 -5 -2 -2 -3 -3 -5 1 -1 -0 -1 -1 2 -2 1 -2 -2 3 3 2 -2 2 -0 -4 -11 -10 -4 0 -3 6 4 3 6 4 12 7 3
-2 -2 -1 -0 -1 -1 1 2 -4 1 2 2 1 -1 4 1 1 -3 -2 5 -4 4 2 3 -1 -1 -3 -0 2 19 9 3 -3 -1 3 3 11 7
0 -1 -2 -0 -2 -1 0 -1 -2 -2 0 -2 -1 4 1 4 -3 -1 -0 2 0 2 -3 0 0 1 4 6 -1 6 16 -2 -2 1 2 9 13 25
-1 -1 1 -0 -1 1 1 1 2 -1 1 2 -1 1 1 2 -1 1 3 6 3 0 -2 -1 2 7 5 0 -2 0 9 10 3 -1 3 2 -6 9
1 -0 -1 -0 1 2 -0 -0 -3 -2 -2 -0 0 1 2 3 2 -2 5 2 -0 1 0 3 2 1 -2 -2 3 6 3 9 5 -1 -3 -8 -3 -3
-1 -1 -1 0 2 1 0 -1 0 -1 3 2 2 1 2 -2 1 2 2 3 2 -0 -1 -2 1 1 1 -3 1 -0 -0 -4 -0 1 -7 12 6 4
Height
1442 1438 1434 1430 1425 1421 1416 1411 1406 1389 1376 1377 1378 1377 1374 1371 1367 1363 1358 1354 1351 1347 1343 1338 1333 1328 1325 1322 1319 1316 1314 1313 1310 1310 1307 1307 1307 1307
1437 1432 1428 1423 1418 1413 1408 1404 1401 1395 1379 1374 1368 1366 1364 1360 1357 1353 1349 1345 1340 1336 1331 1326 1321 1317 1312 1309 1306 1303 1302 1300 1299 1297 1295 1293 1293 1294
1431 1426 1422 1417 1412 1407 1402 1398 1393 1390 1381 1364 1362 1357 1352 1348 1345 1342 1338 1333 1328 1324 1320 1315 1310 1305 1300 1297 1293 1291 1288 1287 1285 1282 1281 1279 1280 1280
1425 1421 1416 1411 1406 1401 1396 1391 1386 1382 1376 1365 1355 1348 1345 1339 1333 1329 1325 1322 1318 1312 1306 1301 1296 1291 1287 1284 1280 1277 1275 1272 1271 1268 1267 1266 1267 1267
1420 1415 1411 1406 1400 1395 1390 1385 1379 1374 1369 1361 1349 1343 1335 1330 1323 1319 1315 1310 1305 1299 1294 1289 1284 1279 1275 1270 1266 1263 1260 1257 1255 1254 1253 1253 1253 1253
1415 1411 1406 1401 1394 1389 1385 1380 1374 1367 1360 1352 1342 1334 1329 1323 1318 1310 1301 1298 1290 1285 1280 1277 1273 1268 1263 1259 1254 1250 1247 1244 1242 1241 1240 1240 1240 1240
1409 1405 1400 1395 1391 1386 1380 1373 1367 1359 1351 1344 1334 1326 1319 1315 1310 1302 1292 1284 1278 1275 1269 1266 1259 1253 1248 1244 1240 1235 1232 1229 1228 1227 1226 1226 1227 1227
1402 1397 1393 1388 1383 1378 1373 1367 1361 1353 1344 1336 1326 1321 1314 1309 1301 1293 1284 1277 1270 1266 1260 1250 1250 1239 1235 1229 1225 1223 1219 1217 1216 1214 1214 1213 1214 1214
1397 1392 1386 1382 1376 1368 1361 1357 1350 1343 1338 1332 1322 1316 1307 1301 1293 1285 1279 1272 1262 1253 1252 1236 1236 1227 1223 1218 1214 1210 1207 1204 1202 1201 1200 1201 1201 1201
1392 1387 1381 1375 1369 1363 1354 1346 1339 1334 1328 1323 1317 1309 1302 1294 1288 1279 1270 1262 1253 1245 1244 1230 1224 1216 1211 1206 1201 1196 1193 1191 1188 1187 1186 1186 1186 1187
1386 1381 1377 1370 1363 1357 1348 1339 1331 1324 1320 1314 1309 1302 1294 1286 1280 1271 1262 1255 1244 1235 1232 1226 1214 1206 1200 1193 1188 1185 1182 1179 1177 1174 1173 1171 1170 1172
1379 1374 1370 1366 1358 1351 1344 1334 1325 1318 1311 1304 1297 1290 1284 1276 1271 1265 1257 1249 1240 1227 1223 1219 1207 1202 1189 1184 1180 1177 1172 1168 1165 1162 1160 1158 1159 1160
1375 1368 1363 1357 1352 1345 1338 1330 1322 1315 1306 1298 1289 1282 1275 1269 1262 1256 1250 1243 1234 1224 1217 1212 1202 1195 1190 1176 1169 1165 1161 1154 1151 1147 1143 1141 1143 1146
1371 1365 1357 1352 1346 1338 1331 1325 1319 1311 1301 1293 1285 1278 1270 1262 1255 1248 1241 1235 1228 1220 1210 1205 1197 1191 1182 1172 1162 1154 1150 1145 1140 1132 1128 1127 1127 1128
1367 1360 1353 1346 1338 1331 1324 1319 1313 1304 1297 1290 1283 1274 1267 1258 1249 1241 1234 1227 1219 1212 1205 1198 1192 1185 1178 1168 1158 1149 1142 1133 1128 1123 1116 1112 1111 1114
1361 1353 1347 1340 1333 1327 1319 1313 1307 1301 1295 1287 1279 1271 1262 1254 1246 1239 1230 1221 1213 1204 1200 1194 1187 1180 1170 1163 1156 1146 1140 1133 1122 1115 1107 1101 1098 1100
1356 1347 1340 1334 1327 1321 1315 1309 1303 1296 1290 1283 1276 1267 1259 1252 1244 1236 1228 1220 1213 1203 1195 1189 1183 1176 1168 1162 1154 1146 1136 1129 1122 1114 1105 1098 1093 1093
1351 1343 1336 1331 1325 1318 1311 1304 1299 1293 1286 1280 1273 1266 1258 1250 1241 1233 1227 1220 1212 1203 1197 1189 1182 1175 1168 1163 1156 1147 1139 1132 1125 1117 1108 1101 1096 1098
1347 1341 1334 1328 1322 1316 1309 1302 1295 1289 1283 1277 1270 1263 1256 1248 1241 1232 1225 1219 1211 1205 1199 1192 1186 1180 1173 1167 1160 1154 1146 1138 1130 1123 1115 1109 1106 1103
1344 1338 1331 1325 1319 1313 1306 1299 1292 1286 1280 1273 1267 1261 1254 1247 1239 1232 1226 1220 1213 1207 1200 1195 1189 1184 1180 1175 1168 1160 1154 1146 1139 1133 1127 1122 1116 1112
1340 1334 1329 1323 1316 1310 1303 1297 1290 1283 1277 1271 1265 1258 1252 1246 1240 1234 1227 1222 1216 1210 1204 1198 1194 1190 1186 1180 1174 1169 1164 1157 1151 1142 1138 1133 1128 1122
1336 1331 1325 1320 1314 1307 1300 1294 1287 1280 1274 1268 1262 1257 1251 1246 1240 1234 1229 1223 1218 1213 1208 1204 1199 1195 1190 1186 1182 1178 1173 1169 1163 1157 1151 1146 1145 1143
1333 1328 1322 1317 1311 1304 1298 1291 1284 1277 1272 1266 1260 1255 1250 1245 1240 1235 1230 1225 1220 1216 1212 1208 1204 1201 1197 1193 1190 1187 1184 1180 1176 1171 1169 1168 1164 1161